Weather observations for the past three days for
Minneapolis, Airlake Airport
Imperial (Metric)
Date Time (cdt) Wind (mph) Vis. (mi.) Weather Sky Cond. Temperature (ºF) Relative Humidity Wind Chill (°F) Heat Index (°F) Pressure Precipitation (in)
Air Dwpt 6 hour altimeter (in) sea level (mb) 1 hr 3 hr 6 hr
Max. Min.
13 01:35 S 5 10.00 Partly Cloudy SCT013 SCT026 SCT110 66.2 62.6 88% 29.71 0.0
13 01:15 SW 5 G 21 10.00 Overcast SCT015 BKN027 OVC050 66.2 64.4 94% 29.73 0.0 0.01
13 00:55 NW 3 G 16 7.00 Overcast SCT019 BKN050 OVC090 69.8 64.4 83% 29.75 0.0 0.01
13 00:35 N 5 10.00 Partly Cloudy SCT080 SCT090 68 66.2 94% 29.72 0.0
13 00:15 Calm 10.00 Partly Cloudy SCT080 69.8 64.4 83% 29.7 0.0
12 23:55 SE 5 10.00 Mostly Cloudy BKN070 BKN090 69.8 64.4 83% 29.7 0.0
12 23:35 NE 8 10.00 Mostly Cloudy BKN070 69.8 66.2 88% 29.71 0.0
12 23:15 Calm 10.00 Fair CLR 69.8 64.4 83% 29.7 0.0
12 22:55 Calm 10.00 Fair CLR 69.8 64.4 83% 29.69 0.0
12 22:35 Calm 10.00 Thunderstorm in Vicinity CLR 69.8 64.4 83% 29.7 0.0
12 22:15 Calm 10.00 Thunderstorm SCT070 71.6 64.4 78% 29.71 0.0
12 21:55 Calm 10.00 Mostly Cloudy SCT065 BKN080 71.6 64.4 78% 29.71 0.0
12 21:35 Calm 7.00 Fair CLR 71.6 64.4 78% 29.71 0.0
12 21:15 Calm 10.00 Fair CLR 73.4 64.4 74% 29.7 0.0
12 20:55 S 5 10.00 Fair CLR 75.2 64.4 69% 77 29.69 0.0
12 20:35 W 3 10.00 Fair CLR 75.2 62.6 65% 77 29.69 0.0
12 20:15 SW 3 10.00 Fair CLR 75.2 62.6 65% 77 29.68 0.0
12 19:55 SW 3 10.00 Fair CLR 77 62.6 61% 79 29.69 0.0
12 19:35 SW 9 G 17 10.00 Fair CLR 77 64.4 65% 79 29.68 0.0
12 19:15 S 10 G 16 10.00 Fair CLR 75.2 64.4 69% 77 29.69 0.0
12 18:55 S 16 G 24 10.00 Fair CLR 75.2 64.4 69% 77 29.68 0.0
12 18:35 S 16 G 25 10.00 Fair CLR 77 64.4 65% 79 29.69 0.0
12 18:15 S 13 G 23 10.00 Fair CLR 78.8 64.4 61% 81 29.7 0.0
12 17:55 S 14 G 23 10.00 Fair CLR 78.8 64.4 61% 81 29.71 0.0
12 17:35 S 17 G 26 10.00 Fair CLR 78.8 64.4 61% 81 29.71 0.0
12 17:15 S 13 G 23 10.00 Fair CLR 78.8 64.4 61% 81 29.73 0.0
12 16:55 S 13 G 21 10.00 Fair CLR 77 64.4 65% 79 29.74 0.0
12 16:35 S 12 G 20 10.00 Fair CLR 77 64.4 65% 79 29.75 0.0
12 16:15 S 12 10.00 Fair CLR 78.8 64.4 61% 81 29.75 0.0
12 15:55 S 10 G 17 10.00 Partly Cloudy SCT080 78.8 64.4 61% 81 29.75 0.0
12 15:35 S 8 10.00 Partly Cloudy SCT080 78.8 62.6 58% 80 29.76 0.0
12 15:15 S 9 G 16 10.00 Fair CLR 75.2 64.4 69% 77 29.77 0.0
12 14:55 S 9 G 21 10.00 Partly Cloudy SCT100 73.4 64.4 74% 29.77 0.0
12 14:35 S 16 G 24 10.00 Partly Cloudy SCT100 71.6 64.4 78% 29.76 0.0
12 14:15 S 12 10.00 Partly Cloudy SCT100 68 64.4 88% 29.76 0.0
12 13:55 S 15 G 22 10.00 Partly Cloudy SCT100 66.2 62.6 88% 29.77 0.0
12 13:35 S 8 10.00 Light Rain SCT060 64.4 62.6 94% 29.77 0.0
12 13:15 S 12 G 22 10.00 Light Rain SCT085 SCT110 64.4 60.8 88% 29.78 0.0
12 12:35 S 10 10.00 Light Rain SCT020 SCT032 BKN085 62.6 60.8 94% 29.78 0.0
12 12:15 S 14 10.00 Thunderstorm Light Rain in Vicinity SCT018 BKN034 OVC050 62.6 60.8 94% 29.79 0.0
12 11:55 S 8 10.00 Rain SCT017 BKN031 OVC065 62.6 60.8 94% 29.83 0.0
12 11:35 SE 9 10.00 Thunderstorm Rain in Vicinity SCT023 BKN031 OVC045 62.6 60.8 94% 29.83 0.0
12 11:15 SE 6 7.00 Rain SCT023 BKN032 OVC045 62.6 60.8 94% 29.87 0.0
12 10:55 E 3 10.00 Thunderstorm Rain in Vicinity SCT017 BKN032 OVC055 62.6 59 88% 29.87 0.0
12 10:35 NW 26 G 40 7.00 Thunderstorm Heavy Rain and Windy SCT017 BKN049 OVC085 62.6 57.2 83% 29.92 0.0
12 10:15 NE 6 10.00 Thunderstorm Rain in Vicinity SCT038 SCT065 BKN100 66.2 57.2 73% 29.81 0.0
12 09:35 Calm 10.00 Light Rain SCT110 71.6 55.4 57% 29.79 0.0
12 09:15 Calm 10.00 Partly Cloudy SCT110 71.6 53.6 53% 29.79 0.0
12 08:55 S 6 10.00 Partly Cloudy SCT100 71.6 53.6 53% 29.79 0.0
12 08:35 S 5 10.00 Fair CLR 71.6 53.6 53% 29.79 0.0
12 08:15 S 8 10.00 Fair CLR 71.6 53.6 53% 29.78 0.0
12 07:55 S 9 10.00 Partly Cloudy SCT110 71.6 53.6 53% 29.79 0.0
12 07:35 S 5 10.00 Fair CLR 69.8 53.6 57% 29.8 0.0
12 07:15 S 5 10.00 Partly Cloudy SCT110 66.2 53.6 64% 29.81 0.0
12 06:55 S 3 10.00 Partly Cloudy SCT110 64.4 53.6 68% 29.8 0.0
12 06:35 S 5 10.00 Partly Cloudy SCT110 62.6 51.8 68% 29.8 0.0
12 06:15 SE 3 10.00 Mostly Cloudy BKN110 62.6 53.6 73% 29.81 0.0
12 05:55 Calm 10.00 Partly Cloudy SCT120 59 51.8 77% 29.83 0.0
12 05:35 S 3 10.00 Fair CLR 57.2 51.8 82% 29.84 0.0
12 05:15 Calm 10.00 Fair CLR 59 51.8 77% 29.84 0.0
12 04:55 SW 3 10.00 Fair CLR 55.4 51.8 88% 29.84 0.0
12 04:35 SW 5 10.00 Fair CLR 55.4 51.8 88% 29.84 0.0
12 04:15 Calm 10.00 Fair CLR 55.4 51.8 88% 29.84 0.0
12 03:55 Calm 10.00 Fair CLR 55.4 51.8 88% 29.84 0.0
12 03:35 Calm 10.00 Fair CLR 57.2 51.8 82% 29.84 0.0
12 03:15 Calm 10.00 Fair CLR 59 51.8 77% 29.84 0.0
12 02:55 Calm 10.00 Fair CLR 60.8 51.8 72% 29.85 0.0
12 02:35 Calm 10.00 Fair CLR 59 51.8 77% 29.85 0.0
12 02:15 Calm 10.00 Fair CLR 57.2 51.8 82% 29.84 0.0
12 01:55 Calm 10.00 Fair CLR 62.6 51.8 68% 29.84 0.0
12 01:35 Calm 10.00 Fair CLR 62.6 50 64% 29.84 0.0
12 01:15 Calm 10.00 Fair CLR 64.4 50 60% 29.84 0.0
12 00:55 W 5 10.00 Fair CLR 62.6 50 64% 29.84 0.0
12 00:35 Calm 10.00 Fair CLR 64.4 50 60% 29.84 0.0
12 00:15 Calm 10.00 Fair CLR 62.6 51.8 68% 29.83 0.0
11 23:55 W 3 10.00 Fair CLR 66.2 51.8 60% 29.83 0.0
11 23:35 Calm 10.00 Fair CLR 66.2 51.8 60% 29.83 0.0
11 23:15 Calm 10.00 Fair CLR 66.2 53.6 64% 29.82 0.0
11 22:55 Calm 10.00 Fair CLR 66.2 53.6 64% 29.82 0.0
11 22:35 SW 3 10.00 Fair CLR 69.8 51.8 53% 29.82 0.0
11 22:15 SW 3 10.00 Fair CLR 69.8 53.6 57% 29.81 0.0
11 21:55 Calm 10.00 Fair CLR 69.8 51.8 53% 29.81 0.0
11 21:35 SW 3 10.00 Fair CLR 68 55.4 64% 29.81 0.0
11 21:15 Calm 10.00 Fair CLR 69.8 53.6 57% 29.8 0.0
11 20:55 Calm 10.00 Fair CLR 73.4 53.6 50% 29.8 0.0
11 20:35 Calm 10.00 Fair CLR 75.2 51.8 44% 78 29.8 0.0
11 20:15 W 3 10.00 Fair CLR 77 51.8 42% 78 29.79 0.0
11 19:55 W 5 10.00 Fair CLR 78.8 51.8 39% 79 29.8 0.0
11 19:35 W 7 10.00 Fair CLR 80.6 51.8 37% 80 29.79 0.0
11 19:15 W 6 10.00 Fair CLR 80.6 50 34% 80 29.79 0.0
11 18:55 NW 10 10.00 Fair CLR 80.6 50 34% 80 29.78 0.0
11 18:35 W 10 10.00 Fair CLR 82.4 50 32% 81 29.78 0.0
11 18:15 W 13 10.00 Fair CLR 82.4 51.8 35% 81 29.78 0.0
11 17:55 W 10 G 18 10.00 Fair CLR 82.4 51.8 35% 81 29.78 0.0
11 17:35 NW 15 G 18 10.00 Fair CLR 82.4 51.8 35% 81 29.78 0.0
11 17:15 NW 9 10.00 Fair CLR 82.4 51.8 35% 81 29.79 0.0
11 16:55 NW 16 G 22 10.00 Fair CLR 82.4 53.6 37% 81 29.78 0.0
11 16:35 NW 13 G 18 10.00 Partly Cloudy SCT070 82.4 55.4 40% 82 29.78 0.0
11 16:15 NW 12 10.00 Partly Cloudy SCT060 82.4 55.4 40% 82 29.78 0.0
11 15:55 W 12 G 18 10.00 Partly Cloudy SCT060 82.4 55.4 40% 82 29.78 0.0
11 15:35 W 8 G 16 10.00 Partly Cloudy SCT060 82.4 55.4 40% 82 29.78 0.0
11 15:15 W 12 G 17 10.00 Fair CLR 82.4 55.4 40% 82 29.79 0.0
11 14:55 W 15 10.00 Partly Cloudy SCT060 82.4 55.4 40% 82 29.79 0.0
11 14:35 NW 12 10.00 Partly Cloudy SCT060 82.4 55.4 40% 82 29.79 0.0
11 14:15 W 12 G 18 10.00 Fair CLR 80.6 55.4 42% 81 29.79 0.0
11 13:55 W 10 10.00 Partly Cloudy SCT050 80.6 57.2 45% 81 29.79 0.0
11 13:35 SW 7 10.00 Fair CLR 80.6 59 48% 81 29.8 0.0
11 13:15 W 7 10.00 Fair CLR 78.8 59 51% 80 29.8 0.0
11 12:55 W 8 G 16 10.00 Fair CLR 77 59 54% 79 29.81 0.0
11 12:35 SW 9 10.00 Fair CLR 75.2 57.2 54% 78 29.81 0.0
11 12:15 SW 6 10.00 Partly Cloudy SCT039 73.4 57.2 57% 29.81 0.0
11 11:55 SW 7 10.00 Partly Cloudy SCT037 71.6 55.4 57% 29.82 0.0
11 11:35 SW 5 10.00 Mostly Cloudy SCT035 BKN048 BKN085 71.6 55.4 57% 29.82 0.0
11 11:15 S 7 G 18 10.00 Mostly Cloudy SCT037 BKN046 BKN050 69.8 53.6 57% 29.82 0.0
11 10:55 S 9 G 16 10.00 Partly Cloudy SCT039 SCT080 68 53.6 60% 29.83 0.0
11 10:35 S 9 G 18 10.00 Mostly Cloudy BKN080 66.2 53.6 64% 29.83 0.0
11 10:15 S 12 G 17 10.00 Mostly Cloudy SCT070 BKN080 66.2 53.6 64% 29.83 0.0
11 09:55 S 14 G 21 10.00 Mostly Cloudy BKN070 BKN080 64.4 51.8 64% 29.83 0.0
11 09:35 S 13 G 17 10.00 Mostly Cloudy BKN080 62.6 51.8 68% 29.83 0.0
11 09:15 S 9 10.00 Overcast SCT065 OVC080 60.8 50 68% 29.84 0.0
11 08:55 S 8 10.00 Overcast OVC065 59 48.2 68% 29.85 0.0
11 08:35 S 7 10.00 Overcast BKN065 OVC075 57.2 50 77% 29.85 0.0
11 08:15 S 7 10.00 Rain OVC065 57.2 50 77% 29.86 0.0
11 07:55 S 8 10.00 Overcast OVC065 55.4 50 82% 29.87 0.0
11 07:35 S 9 10.00 Light Rain OVC065 55.4 48.2 77% 29.88 0.0
11 07:15 S 6 10.00 Rain SCT043 SCT050 OVC065 55.4 48.2 77% 29.89 0.0
11 06:55 S 3 10.00 Rain BKN060 BKN075 OVC090 57.2 48.2 72% 29.9 0.0
11 06:35 S 3 10.00 Light Rain SCT026 SCT040 BKN060 57.2 48.2 72% 29.9 0.0
11 06:15 Calm 10.00 Rain SCT027 BKN037 BKN042 57.2 46.4 67% 29.91 0.0
11 05:35 S 3 10.00 Partly Cloudy SCT075 60.8 44.6 55% 29.91 0.0
11 05:15 Calm 10.00 Fair CLR 59 44.6 59% 29.91 0.0
11 04:55 Calm 10.00 Fair CLR 57.2 44.6 63% 29.91 0.0
11 04:35 Calm 10.00 Fair CLR 57.2 44.6 63% 29.91 0.0
11 04:15 Calm 10.00 Fair CLR 57.2 44.6 63% 29.91 0.0
11 03:55 SE 3 10.00 Fair CLR 57.2 44.6 63% 29.9 0.0
11 03:35 Calm 10.00 Fair CLR 57.2 44.6 63% 29.92 0.0
11 03:15 Calm 10.00 Fair CLR 57.2 44.6 63% 29.92 0.0
11 02:55 SE 5 10.00 Fair CLR 55.4 44.6 67% 29.91 0.0
11 02:35 SE 3 10.00 Fair CLR 55.4 44.6 67% 29.92 0.0
11 02:15 SE 6 10.00 Fair CLR 57.2 44.6 63% 29.93 0.0
11 01:55 S 5 10.00 Fair CLR 57.2 44.6 63% 29.94 0.0
11 01:35 SE 5 10.00 Fair CLR 57.2 44.6 63% 29.95 0.0
11 01:15 Calm 10.00 Fair CLR 55.4 44.6 67% 29.95 0.0
11 00:55 Calm 10.00 Fair CLR 57.2 44.6 63% 29.96 0.0
11 00:35 Calm 10.00 Fair CLR 57.2 46.4 67% 29.97 0.0
11 00:15 Calm 10.00 Fair CLR 57.2 46.4 67% 29.97 0.0
10 23:35 Calm 10.00 Fair CLR 55.4 48.2 77% 29.98 0.0
10 23:15 Calm 10.00 Fair CLR 55.4 48.2 77% 29.99 0.0
10 22:55 Calm 10.00 Fair CLR 57.2 46.4 67% 29.98 0.0
10 22:35 Calm 10.00 Fair CLR 59 46.4 63% 29.98 0.0
10 22:15 Calm 10.00 Fair CLR 60.8 46.4 59% 29.98 0.0
10 21:55 Calm 10.00 Fair CLR 62.6 44.6 52% 29.98 0.0
10 21:35 Calm 10.00 Fair CLR 64.4 44.6 49% 29.97 0.0
10 21:15 Calm 10.00 Fair CLR 64.4 42.8 46% 29.96 0.0
10 20:55 Calm 10.00 Fair CLR 66.2 42.8 43% 29.96 0.0
10 20:35 SE 3 10.00 Fair CLR 66.2 42.8 43% 29.95 0.0
10 20:15 SE 3 10.00 Fair CLR 68 41 38% 29.96 0.0
10 19:55 Calm 10.00 Fair CLR 69.8 41 35% 29.97 0.0
10 19:35 Calm 10.00 Fair CLR 71.6 42.8 36% 29.97 0.0
10 19:15 Calm 10.00 Fair CLR 71.6 42.8 36% 29.96 0.0
10 18:55 S 3 10.00 Fair CLR 71.6 41 33% 29.97 0.0
10 18:35 S 5 10.00 Fair CLR 71.6 41 33% 29.97 0.0
10 18:15 SE 5 10.00 Fair CLR 71.6 41 33% 29.97 0.0
10 17:55 SE 6 10.00 Fair CLR 73.4 42.8 33% 29.98 0.0
10 17:35 Calm 10.00 Fair CLR 73.4 39.2 29% 29.99 0.0
10 17:15 Calm 10.00 Fair CLR 71.6 39.2 31% 30 0.0
10 16:55 Calm 10.00 Fair CLR 73.4 42.8 33% 30 0.0
10 16:35 E 3 10.00 Fair CLR 73.4 41 31% 30.01 0.0
10 16:15 S 3 10.00 Fair CLR 73.4 41 31% 30.01 0.0
10 15:55 SE 7 10.00 Fair CLR 73.4 42.8 33% 30.01 0.0
10 15:35 NE 3 10.00 Fair CLR 73.4 44.6 36% 30.02 0.0
10 15:15 Calm 10.00 Fair CLR 73.4 42.8 33% 30.03 0.0
10 14:55 Calm 10.00 Fair CLR 71.6 42.8 36% 30.04 0.0
10 14:35 NE 5 10.00 Fair CLR 71.6 42.8 36% 30.04 0.0
10 14:15 E 6 10.00 Fair CLR 71.6 44.6 38% 30.04 0.0
10 13:55 Calm 10.00 Fair CLR 71.6 42.8 36% 30.06 0.0
10 13:35 N 3 10.00 Fair CLR 71.6 44.6 38% 30.06 0.0
10 13:15 NW 3 10.00 Fair CLR 71.6 42.8 36% 30.06 0.0
10 12:55 N 6 10.00 Fair CLR 69.8 42.8 38% 30.08 0.0
10 12:35 Calm 10.00 Fair CLR 69.8 41 35% 30.08 0.0
10 12:15 N 3 10.00 Fair CLR 69.8 41 35% 30.09 0.0
10 11:55 Calm 10.00 Fair CLR 68 44.6 43% 30.09 0.0
10 11:35 N 8 10.00 Fair CLR 69.8 44.6 40% 30.09 0.0
10 11:15 Calm 10.00 Fair CLR 68 44.6 43% 30.1 0.0
10 10:55 E 3 10.00 Fair CLR 66.2 44.6 46% 30.1 0.0
10 10:35 Calm 10.00 Partly Cloudy SCT048 66.2 44.6 46% 30.1 0.0
10 10:15 Calm 10.00 Fair CLR 66.2 44.6 46% 30.1 0.0
10 09:55 Calm 10.00 Fair CLR 66.2 46.4 49% 30.1 0.0
10 09:35 Calm 10.00 Fair CLR 64.4 46.4 52% 30.11 0.0
10 09:15 N 3 10.00 Fair CLR 64.4 48.2 56% 30.11 0.0
10 08:55 Calm 10.00 Fair CLR 62.6 48.2 60% 30.11 0.0
10 08:35 Calm 10.00 Fair CLR 62.6 48.2 60% 30.11 0.0
10 07:55 Calm 10.00 Fair CLR 59 48.2 68% 30.11 0.0
10 07:35 Calm 10.00 Fair CLR 57.2 48.2 72% 30.11 0.0
10 07:15 Calm 10.00 Fair CLR 57.2 48.2 72% 30.11 0.0
10 06:55 Calm 10.00 Fair CLR 55.4 48.2 77% 30.12 0.0
10 06:35 Calm 10.00 Fair CLR 53.6 48.2 82% 30.11 0.0
10 06:15 Calm 10.00 Fair CLR 51.8 48.2 88% 30.11 0.0
10 05:55 Calm 10.00 Fair CLR 50 46.4 88% 30.11 0.0
10 05:35 Calm 10.00 Fair CLR 50 46.4 88% 30.1 0.0
10 05:15 Calm 10.00 Fair CLR 48.2 46.4 94% 30.09 0.0
10 04:55 Calm 10.00 Fair CLR 50 44.6 82% 30.09 0.0
10 04:35 Calm 10.00 Fair CLR 50 44.6 82% 30.08 0.0
10 04:15 Calm 10.00 Fair CLR 51.8 46.4 82% 30.08 0.0
10 03:55 Calm 10.00 Fair CLR 50 46.4 88% 30.09 0.0
10 03:35 Calm 10.00 Fair CLR 53.6 46.4 77% 30.09 0.0
10 03:15 Calm 10.00 Fair CLR 53.6 46.4 77% 30.09 0.0
10 02:55 Calm 10.00 Fair CLR 53.6 46.4 77% 30.08 0.0
10 02:35 NE 3 10.00 Fair CLR 53.6 46.4 77% 30.09 0.0
10 02:15 NE 5 10.00 Fair CLR 55.4 46.4 72% 30.09 0.0
Date Time (cdt) Wind (mph) Vis. (mi.) Weather Sky Cond. Air Dwpt Max. Min. Relative Humidity Wind Chill (°F) Heat Index (°F) altimeter (in) sea level (mb) 1 hr 3 hr 6 hr
6 hour
Temperature (ºF) Pressure Precipitation (in)